Haines, AK

12:44 PM AKDT on March 24, 2017 (GMT -0800)
Haines

Weather History for PAHN - September, 2013

Change the Weather History Date:

Sunday, September 15, 2013

  Actual Average Record
Temperature  
Mean Temperature 59 °F -  
Max Temperature 69 °F 52 °F 73 °F (2010)
Min Temperature 50 °F 44 °F 31 °F (1992)
Degree Days  
Heating Degree Days 6    
Growing Degree Days 9 (Base 50)    
Moisture  
Dew Point 47 °F    
Average Humidity 66    
Maximum Humidity 86    
Minimum Humidity 47    
Precipitation  
Precipitation 0.01 in - - ()
Sea Level Pressure  
Sea Level Pressure 29.70 in    
Wind  
Wind Speed 14 mph (NW)    
Max Wind Speed 18 mph    
Max Gust Speed 25 mph    
Visibility 10 miles    
Events      
Averages and records for this station are not official NWS values.
T = Trace of Precipitation, MM = Missing Value Source: NWS Daily Summary

Daily Weather History Graph

Daily Weather History Graph

Search for Another Location

Airport or City:

Trip Planner

Search our weather history database for the weather conditions in past years. The results will help you decide how hot, cold, wet, or windy it might be!

Date:

Astronomy

Sep. 15, 2013 Rise Set
Actual Time 6:31 AM AKDT 7:21 PM AKDT
Civil Twilight 5:50 AM AKDT 8:02 PM AKDT
Nautical Twilight 4:59 AM AKDT 8:52 PM AKDT
Astronomical Twilight 4:03 AM AKDT 9:48 PM AKDT
Moon 5:32 PM AKDT (9/15) 1:29 AM AKDT (9/15)
Length of Visible Light 14h 11m
Length of Day
12h 49m
Waxing Gibbous, 83% of the Moon is Illuminated
Sep 15
Waxing Gibbous
Sep 19
Full
Sep 26
Last Quarter
Oct 4
New
Oct 11
First Quarter

Hourly Weather History & Observations

Time (AKDT) Temp. Dew Point Humidity Pressure Visibility Wind Dir Wind Speed Gust Speed Precip Events Conditions
12:54 AM 54.0 °F 48.0 °F 80% 29.82 in 10.0 mi NW 11.5 mph 17.3 mph N/A   Clear
1:54 AM 52.0 °F 46.9 °F 83% 29.81 in 10.0 mi WNW 13.8 mph - N/A   Clear
2:54 AM 53.1 °F 48.0 °F 83% 29.80 in 10.0 mi WNW 13.8 mph - 0.01 in   Clear
3:54 AM 54.0 °F 48.0 °F 80% 29.80 in 10.0 mi WNW 13.8 mph 21.9 mph N/A   Clear
4:54 AM 50.0 °F 46.0 °F 86% 29.78 in 10.0 mi WNW 16.1 mph - N/A   Clear
5:54 AM 50.0 °F 46.0 °F 86% 29.78 in 10.0 mi WNW 17.3 mph - N/A   Clear
6:54 AM 50.0 °F 45.0 °F 83% 29.77 in 10.0 mi WNW 17.3 mph - N/A   Clear
7:54 AM 51.1 °F 45.0 °F 80% 29.76 in 10.0 mi WNW 15.0 mph - N/A   Clear
8:54 AM 52.0 °F 46.0 °F 80% 29.76 in 10.0 mi WNW 18.4 mph - N/A   Clear
9:54 AM 54.0 °F 46.9 °F 77% 29.75 in 10.0 mi WNW 16.1 mph - N/A   Clear
10:54 AM 60.1 °F 46.9 °F 62% 29.74 in 10.0 mi NW 15.0 mph - N/A   Partly Cloudy
11:54 AM 62.1 °F 46.9 °F 58% 29.72 in 10.0 mi WNW 15.0 mph 20.7 mph N/A   Scattered Clouds
12:54 PM 64.0 °F 46.0 °F 52% 29.71 in 10.0 mi WNW 13.8 mph - N/A   Clear
1:54 PM 66.9 °F 46.9 °F 49% 29.68 in 10.0 mi NW 12.7 mph - N/A   Partly Cloudy
2:54 PM 68.0 °F 46.9 °F 47% 29.66 in 10.0 mi WNW 15.0 mph 20.7 mph N/A   Scattered Clouds
3:54 PM 68.0 °F 48.0 °F 49% 29.64 in 10.0 mi WNW 13.8 mph - N/A   Partly Cloudy
4:54 PM 66.9 °F 46.9 °F 49% 29.62 in 10.0 mi NW 12.7 mph 19.6 mph N/A   Clear
5:54 PM 66.0 °F 46.9 °F 50% 29.61 in 10.0 mi NW 11.5 mph - N/A   Clear
6:54 PM 64.9 °F 46.9 °F 52% 29.60 in 10.0 mi NW 13.8 mph 25.3 mph N/A   Clear
7:54 PM 63.0 °F 48.0 °F 58% 29.60 in 10.0 mi NW 12.7 mph 20.7 mph N/A   Clear
8:54 PM 62.1 °F 48.0 °F 60% 29.59 in 10.0 mi NW 12.7 mph - N/A   Scattered Clouds
9:54 PM 62.1 °F 46.9 °F 58% 29.58 in 10.0 mi NW 15.0 mph 19.6 mph N/A   Mostly Cloudy
10:54 PM 60.1 °F 46.9 °F 62% 29.57 in 10.0 mi NW 15.0 mph 23.0 mph N/A   Clear
11:54 PM 61.0 °F 46.0 °F 58% 29.57 in 10.0 mi WNW 17.3 mph 23.0 mph N/A   Overcast